Regional Weather Roundup
Issued by NWS

Home | Current Version | Previous Version | Graphics & Text | Print | Product List | Glossary On
Versions: 1 2 3 4 5 6 7 8 9 10 11 12 13 14 15 16 17 18 19 20 21 22 23 24 25 26 27 28 29 30 31 32 33 34 35 36 37 38 39 40 41 42 43 44 45 46 47 48 49 50
000
ASUS45 KBOI 280010
RWRID
WEATHER ROUNDUP FOR IDAHO
NATIONAL WEATHER SERVICE BOISE ID
600 PM MDT SUN JUL 27 2014

NOTE: "FAIR" INDICATES FEW OR NO CLOUDS BELOW 12000 FEET
WITH NO SIGNIFICANT WEATHER AND/OR OBSTRUCTIONS TO VISIBILITY

IDZ012-014-280100-
SOUTHWEST IDAHO


CITY           SKY/WX    TMP DP  RH WIND       PRES   REMARKS
BOISE          SUNNY     98  36  11 NW7       30.01F HX  93
CALDWELL       SUNNY     97  41  14 CALM      30.01F HX  92
MOUNTAIN HOME  CLOUDY    99  25   7 NW2       30.00F HX  92
$$

IDZ016-017-280100-
SOUTHCENTRAL IDAHO


CITY           SKY/WX    TMP DP  RH WIND       PRES   REMARKS
BURLEY         MOSUNNY   96  42  15 N7        30.07F HX  92
JEROME         MOSUNNY   94  53  25 W6        30.09F HX  91
TWIN FALLS     MOSUNNY   96  41  15 NW8       30.09F HX  92
$$

IDZ019>023-280100-
SOUTHEAST IDAHO


CITY           SKY/WX    TMP DP  RH WIND       PRES   REMARKS
IDAHO FALLS    MOSUNNY   95  28   9 N6        30.18F
POCATELLO      MOSUNNY   96  31  10 N12       30.13F HX  90
REXBURG        MOSUNNY   91  25   9 VRB7      30.19F
$$

IDZ006-010-011-018-031-032-280100-
CENTRAL IDAHO MOUNTAINS


CITY           SKY/WX    TMP DP  RH WIND       PRES   REMARKS
MCCALL         MOSUNNY   87  26  11 NW5       30.19F
HAILEY         PTSUNNY   88  43  20 SE12      30.20F
STANLEY          N/A     87  21   9 NE6       30.29F
SALMON         MOSUNNY   91  30  11 N5        30.08F
CHALLIS        SUNNY     94  21   7 CALM      30.17F
$$

IDZ002-004-006-007-026-280100-
NORTHERN IDAHO


CITY           SKY/WX    TMP DP  RH WIND       PRES   REMARKS
LEWISTON       PTSUNNY  100  36  11 CALM      29.98F HX  94
LOWELL           N/A     95  55  26 CALM      29.97F HX  93
COEUR D`ALENE  PTSUNNY   90  36  14 CALM      30.09S
MULLAN PASS    MOSUNNY   76  33  21 CALM      30.36S
$$



USA.gov is the U.S. government's official web portal to all federal, state and local government web resources and services.